Torna al catalogo

STARLINK-34437

AttivoComunicazioniVLEO
NORAD 64346·PAYLOAD·🇺🇸 United States

Lanciato Jun 13, 2025 da Vandenberg Space Force Base

Loading…

Prossimi Passaggi (prossime 24 ore)

TLE

AggiornatoSource: CelesTrak SupGP

Epoca: Sep 14, 2026, 14:46 UTC

1 64346C 25126C   26257.61576389 -.00026713  00000+0 -92955-3 0  2576
2 64346  69.9997 276.7746 0003199 273.7659 123.1546 15.29582730    19

Traccia STARLINK-34437 in tempo reale con AllMySat

Download on the App Store